Regional Weather Roundup
Issued by NWS

Home | Current Version | Previous Version | Text Only | Print | Product List | Glossary On
Versions: 1 2 3 4 5 6 7 8 9 10 11 12 13 14 15 16 17 18 19 20 21 22 23 24 25 26 27
000
ASUS45 KBOI 270910
RWRID

IDAHO REGIONAL WEATHER ROUNDUP
NATIONAL WEATHER SERVICE BOISE ID
300 AM MDT FRI APR 27 2018

NOTE: "FAIR" INDICATES FEW OR NO CLOUDS BELOW 12000 FEET
WITH NO SIGNIFICANT WEATHER AND/OR OBSTRUCTIONS TO VISIBILITY

IDZ012-014-271000-
SOUTHWEST IDAHO


CITY           SKY/WX    TMP DP  RH WIND       PRES   REMARKS
BOISE          CLEAR     56  37  49 SE8       29.92F
CALDWELL       CLEAR     50  36  58 E8        29.92F
MOUNTAIN HOME  CLEAR     47  30  50 SE8       29.94F
$$

IDZ016-017-271000-
SOUTHCENTRAL IDAHO


CITY           SKY/WX    TMP DP  RH WIND       PRES   REMARKS
BURLEY         CLEAR     42  32  67 N5        30.00F
JEROME         CLEAR     51  22  31 NE17      30.00F
TWIN FALLS     CLEAR     45  29  53 S8        30.00F
$$

IDZ019>023-271000-
SOUTHEAST IDAHO


CITY           SKY/WX    TMP DP  RH WIND       PRES   REMARKS
IDAHO FALLS    CLEAR     38  30  73 N6        30.09F WCI  33
POCATELLO      CLEAR     40  32  73 CALM      30.06F
REXBURG        CLEAR     39  31  72 NE5       30.10F
$$

IDZ006-010-011-018-031-032-271000-
CENTRAL IDAHO MOUNTAINS


CITY           SKY/WX    TMP DP  RH WIND       PRES   REMARKS
MCCALL         CLEAR     37  30  75 CALM      30.05F
HAILEY         CLEAR     45  30  57 NW12      30.12F
STANLEY          N/A     30  24  78 CALM      30.17F
SALMON         CLEAR     40  29  64 SE5       30.09S
CHALLIS        CLEAR     40  20  44 CALM      30.11S
$$

IDZ002-004-006-007-026-271000-
NORTHERN IDAHO


CITY           SKY/WX    TMP DP  RH WIND       PRES   REMARKS
LEWISTON       CLEAR     55  41  59 SE5       29.91S
LOWELL           N/A     45  40  82 N3        30.02F
COEUR D`ALENE  CLEAR     48  35  60 NE10      29.97F
MULLAN PASS    CLEAR     50  31  48 SE9       30.09F
$$




USA.gov is the U.S. government's official web portal to all federal, state and local government web resources and services.